Flag for China Weather past 2 weeks in Kashgar, Xinjiang, China

Now
82 °F

Scattered clouds.


Feels Like: 81 °F
Forecast: 68 / 87 °F
Wind: 20 mph from Northwest

Location: Kashi Airport

Current Time: Jul 30, 2014 at 5:03:35 PM

Latest Report: Jul 30, 2014 at 4:00 PM


Visibility: N/A

Pressure: 29.83 "Hg

Humidity: 26%

Dew point: 45 °F

Location of KashgarLocation

Historic Weather in Kashgar — Graph

°F

Kashgar temperature yesterday

Maximum temperature yesterday: 93 °F (at 4:00 PM)
Minimum temperature yesterday: 79 °F (at 8:00 AM)
Average temperature yesterday: 87 °F

Past Weeks' High & Low Weather Summary

 TemperatureHumidityPressure
High99 °F (Jul 24, 5:00 PM)78% (Jul 18, 5:00 AM)30.01 "Hg (Jul 18, 5:00 AM)
Low63 °F (Jul 18, 8:00 AM)9% (Jul 16, 2:00 PM)29.56 "Hg (Jul 28, 7:00 PM)
Average83 °F26%29.80 "Hg
* Reported Jul 15 4:00 PM — Jul 30 4:00 PM, Kashgar, Weather by CustomWeather, © 2014

Note: Actual official high and low records may vary slightly from our data, if they occured in-between our weather recording intervals... More about our weather records

Advertising

Kashgar weather history for previous 24 hours

 ConditionsComfort  
Time TempWeatherWind HumidityBarometerVisibility
4:00 PM
Jul 30
82 °FScattered clouds.20 mph26%29.83 "HgN/A
3:00 PM86 °FScattered clouds.8 mph22%29.83 "HgN/A
2:00 PM84 °FPassing clouds.13 mph27%29.83 "HgN/A
1:00 PM82 °FPassing clouds.13 mph25%29.83 "HgN/A
12:00 PM82 °FPartly sunny.13 mph19%29.83 "HgN/A
11:00 AM81 °FPassing clouds.13 mph21%29.80 "HgN/A
10:00 AM81 °FScattered clouds.13 mph20%29.80 "HgN/A
9:00 AM79 °FScattered clouds.8 mph21%29.77 "HgN/A
8:00 AM77 °FPartly sunny.13 mph22%29.74 "HgN/A
7:00 AM75 °FPassing clouds.13 mph24%29.71 "HgN/A
6:00 AM77 °FClear.8 mph22%29.71 "Hg10 mi
5:00 AM77 °FClear.20 mph21%29.68 "Hg10 mi
4:00 AM79 °FClear.24 mph20%29.71 "Hg10 mi
3:00 AM79 °FPleasantly warm.22 mph20%29.71 "Hg6 mi
2:00 AM79 °FClear.26 mph21%29.71 "Hg10 mi
1:00 AM81 °FPassing clouds.24 mph18%29.71 "HgN/A
12:00 AM82 °FPassing clouds.26 mph19%29.71 "Hg5 mi
11:00 PM
Jul 29
86 °FSprinkles. Passing clouds.26 mph17%29.68 "Hg5 mi
10:00 PM88 °FScattered clouds.24 mph16%29.62 "Hg5 mi
9:00 PM91 °FScattered clouds.13 mph13%29.59 "Hg6 mi
8:00 PM93 °FScattered clouds.6 mph16%29.59 "HgN/A
7:00 PM93 °FScattered clouds.3 mph16%29.59 "HgN/A
6:00 PM93 °FScattered clouds.15 mph15%29.59 "HgN/A
5:00 PM93 °FPassing clouds.8 mph17%29.59 "HgN/A
Weather by CustomWeather, © 2014

See weather overviewHow to use our weather pages